Regional Weather Roundup
Issued by NWS Cleveland, OH

Home | Current Version | Previous Version | Text Only | Print | Product List | Glossary Off
Versions: 1 2 3 4 5 6 7 8 9 10 11 12 13 14 15 16 17 18 19 20 21 22 23 24 25 26 27 28 29 30 31 32 33 34 35 36 37 38 39 40 41 42 43 44 45 46 47 48 49 50

000
ASUS41 KCLE 140100
RWRCLE
OHIO REGIONAL WEATHER ROUNDUP
NATIONAL WEATHER SERVICE WILMINGTON, OH
900 PM EDT SUN JUL 13 2014

NOTE: "FAIR" INDICATES FEW OR NO CLOUDS BELOW 12,000 FEET WITH NO
SIGNIFICANT WEATHER AND/OR OBSTRUCTIONS TO VISIBILITY.

OHZ001>008-015>018-024>027-034-035-043-044-140200-
   NORTHWEST OHIO

CITY           SKY/WX    TMP DP  RH WIND       PRES   REMARKS
DEFIANCE       PTCLDY    77  64  64 CALM      29.91R
FINDLAY        CLEAR     79  66  64 NW7       29.91R
TOLEDO EXPRESS CLEAR     79  62  56 W6        29.90R
TOLEDO METCALF CLEAR     79  62  56 W8        29.90S
LIMA           CLEAR     79  67  66 W7        29.93R
$$

OHZ009>014-019>023-028>033-038-089-140200-
   NORTHEAST OHIO

CITY           SKY/WX    TMP DP  RH WIND       PRES   REMARKS
CLE-HOPKINS    PTCLDY    76  64  66 W5        29.92S
CLE-LAKEFRONT  CLEAR     77  66  68 SW8       29.88S
CUY CO. ARPT   PTCLDY    77  68  73 W9        29.91S
LORAIN-ELYRIA  CLEAR     79  66  64 CALM      29.92R
ASHTABULA      CLEAR     72  65  78 SW3       29.91S
AKRON-CANTON   PTCLDY    78  66  66 NW5       29.93R
WOOSTER        NOT AVBL
MANSFIELD      CLEAR     77  65  66 W3        29.94S
YOUNGSTOWN     PTCLDY    72  67  84 CALM      29.93R
$$

OHZ042-051>053-060>062-070>072-077>081-140200-
  SOUTHWEST OHIO

CITY           SKY/WX    TMP DP  RH WIND       PRES   REMARKS
CINC-COVINGTON CLOUDY    75  71  87 SW5       29.95S
CINC-LUNKEN    CLOUDY    76  75  97 CALM      29.94R
HAMILTON       CLOUDY    74  73  97 CALM      29.95R
DAYTON         NOT AVBL
WRIGHT-PAT AFB NOT AVBL
DAYTON GENERAL RAIN      74  70  87 W3        29.95R FOG
WILMINGTON     CLOUDY    73  69  87 W5        29.95S
$$

OHZ036-037-039>041-045>050-054>059-063>069-073>076-082>088-140200-
  CENTRAL AND SOUTHEAST OHIO

CITY           SKY/WX    TMP DP  RH WIND       PRES   REMARKS
COLUMBUS       LGT RAIN  75  70  84 SW8       29.93F
OSU AIRPORT    MOCLDY    76  70  82 SW7       29.93S
BOLTON FIELD   NOT AVBL
RICKENBACK AFB NOT AVBL
NEWARK         CLOUDY    74  70  87 SW5       29.93S
MARION         CLEAR     79  66  64 NW5       29.93R
LANCASTER      RAIN      73  70  90 S5        29.94F FOG
ZANESVILLE     MOCLDY    71  69  93 SW6       29.94S
NEW PHILLY     LGT RAIN  72  69  90 MISG      29.93S
$$


USA.gov is the U.S. government's official web portal to all federal, state and local government web resources and services.